Time,TemperatureF,DewpointF,PressureIn,WindDirection,WindDirectionDegrees,WindSpeedMPH,WindSpeedGustMPH,Humidity,HourlyPrecipIn,Conditions,Clouds,dailyrainin,SoftwareType,DateUTC
2013-05-21 00:11:00,-999.0,-99.9,30.02,East,96,4.0,6.0,-999,0.00,,,0.00,weatherlink.com 1.10,2013-05-21 04:11:00,
2013-05-21 00:26:00,-999.0,-99.9,30.01,East,89,5.0,9.0,-999,0.00,,,0.00,weatherlink.com 1.10,2013-05-21 04:26:00,
2013-05-21 00:41:00,-999.0,-99.9,30.01,ESE,110,1.0,9.0,-999,0.00,,,0.00,weatherlink.com 1.10,2013-05-21 04:41:00,
2013-05-21 00:56:00,-999.0,-99.9,30.00,SSW,205,2.0,8.0,-999,0.00,,,0.00,weatherlink.com 1.10,2013-05-21 04:56:00,
2013-05-21 01:11:00,-999.0,-99.9,29.99,ESE,113,4.0,8.0,-999,0.00,,,0.00,weatherlink.com 1.10,2013-05-21 05:11:00,
2013-05-21 01:26:00,-999.0,-99.9,29.99,NE,54,1.0,7.0,-999,0.00,,,0.00,weatherlink.com 1.10,2013-05-21 05:26:00,
2013-05-21 01:41:00,-999.0,-99.9,29.98,East,101,5.0,7.0,-999,0.00,,,0.00,weatherlink.com 1.10,2013-05-21 05:41:00,
2013-05-21 01:56:00,-999.0,-99.9,29.98,SSE,167,0.0,8.0,-999,0.00,,,0.00,weatherlink.com 1.10,2013-05-21 05:56:00,
2013-05-21 02:11:00,-999.0,-99.9,29.97,East,94,6.0,11.0,-999,0.00,,,0.00,weatherlink.com 1.10,2013-05-21 06:11:00,
2013-05-21 02:26:00,-999.0,-99.9,29.96,NE,46,3.0,8.0,-999,0.00,,,0.00,weatherlink.com 1.10,2013-05-21 06:26:00,
2013-05-21 02:41:00,-999.0,-99.9,29.95,East,98,7.0,11.0,-999,0.00,,,0.00,weatherlink.com 1.10,2013-05-21 06:41:00,
2013-05-21 02:56:00,-999.0,-99.9,29.95,East,101,6.0,11.0,-999,0.00,,,0.00,weatherlink.com 1.10,2013-05-21 06:56:00,
2013-05-21 03:12:00,-999.0,-99.9,29.94,ESE,117,3.0,8.0,-999,0.00,,,0.00,weatherlink.com 1.10,2013-05-21 07:12:00,
2013-05-21 03:27:00,-999.0,-99.9,29.94,ESE,119,1.0,9.0,-999,0.00,,,0.00,weatherlink.com 1.10,2013-05-21 07:27:00,
2013-05-21 03:42:00,-999.0,-99.9,29.94,East,91,6.0,9.0,-999,0.00,,,0.00,weatherlink.com 1.10,2013-05-21 07:42:00,
2013-05-21 03:57:00,-999.0,-99.9,29.94,ESE,108,2.0,8.0,-999,0.00,,,0.00,weatherlink.com 1.10,2013-05-21 07:57:00,
2013-05-21 04:12:00,-999.0,-99.9,29.94,ESE,110,2.0,6.0,-999,0.00,,,0.00,weatherlink.com 1.10,2013-05-21 08:12:00,
2013-05-21 04:27:00,-999.0,-99.9,29.93,East,91,2.0,5.0,-999,0.00,,,0.00,weatherlink.com 1.10,2013-05-21 08:27:00,
2013-05-21 04:42:00,-999.0,-99.9,29.94,East,79,2.0,5.0,-999,0.00,,,0.00,weatherlink.com 1.10,2013-05-21 08:42:00,
2013-05-21 04:57:00,-999.0,-99.9,29.94,East,91,2.0,5.0,-999,0.00,,,0.00,weatherlink.com 1.10,2013-05-21 08:57:00,
2013-05-21 05:12:00,-999.0,-99.9,29.94,East,91,3.0,4.0,-999,0.00,,,0.00,weatherlink.com 1.10,2013-05-21 09:12:00,
2013-05-21 05:27:00,-999.0,-99.9,29.93,ESE,122,2.0,6.0,-999,0.00,,,0.00,weatherlink.com 1.10,2013-05-21 09:27:00,
2013-05-21 05:42:00,-999.0,-99.9,29.93,SSE,168,2.0,6.0,-999,0.00,,,0.00,weatherlink.com 1.10,2013-05-21 09:42:00,
2013-05-21 05:57:00,-999.0,-99.9,29.93,ESE,105,4.0,5.0,-999,0.00,,,0.00,weatherlink.com 1.10,2013-05-21 09:57:00,
2013-05-21 06:12:00,-999.0,-99.9,29.94,SE,124,3.0,6.0,-999,0.00,,,0.00,weatherlink.com 1.10,2013-05-21 10:12:00,
2013-05-21 06:27:00,-999.0,-99.9,29.94,SE,126,1.0,6.0,-999,0.00,,,0.00,weatherlink.com 1.10,2013-05-21 10:27:00,
2013-05-21 06:42:00,-999.0,-99.9,29.95,East,89,1.0,5.0,-999,0.00,,,0.00,weatherlink.com 1.10,2013-05-21 10:42:00,
2013-05-21 06:57:00,-999.0,-99.9,29.95,East,95,2.0,7.0,-999,0.00,,,0.00,weatherlink.com 1.10,2013-05-21 10:57:00,
2013-05-21 07:12:00,-999.0,-99.9,29.95,ESE,113,5.0,8.0,-999,0.00,,,0.00,weatherlink.com 1.10,2013-05-21 11:12:00,
2013-05-21 07:28:00,-999.0,-99.9,29.96,SE,146,3.0,6.0,-999,0.00,,,0.00,weatherlink.com 1.10,2013-05-21 11:28:00,
2013-05-21 07:43:00,-999.0,-99.9,29.97,East,93,2.0,7.0,-999,0.00,,,0.00,weatherlink.com 1.10,2013-05-21 11:43:00,
2013-05-21 07:58:00,-999.0,-99.9,29.97,ESE,115,3.0,5.0,-999,0.00,,,0.00,weatherlink.com 1.10,2013-05-21 11:58:00,
2013-05-21 08:13:00,-999.0,-99.9,29.98,South,181,1.0,6.0,-999,0.00,,,0.00,weatherlink.com 1.10,2013-05-21 12:13:00,
2013-05-21 08:28:00,-999.0,-99.9,29.98,East,98,0.0,4.0,-999,0.00,,,0.00,weatherlink.com 1.10,2013-05-21 12:28:00,
2013-05-21 08:43:00,-999.0,-99.9,29.98,ESE,117,3.0,9.0,-999,0.00,,,0.00,weatherlink.com 1.10,2013-05-21 12:43:00,
2013-05-21 08:58:00,-999.0,-99.9,29.99,ENE,65,5.0,10.0,-999,0.00,,,0.00,weatherlink.com 1.10,2013-05-21 12:58:00,
2013-05-21 09:13:00,-999.0,-99.9,29.98,SE,146,6.0,9.0,-999,0.00,,,0.00,weatherlink.com 1.10,2013-05-21 13:13:00,
2013-05-21 09:28:00,-999.0,-99.9,29.99,ESE,115,1.0,10.0,-999,0.00,,,0.00,weatherlink.com 1.10,2013-05-21 13:28:00,
2013-05-21 09:43:00,-999.0,-99.9,29.99,East,91,3.0,9.0,-999,0.00,,,0.00,weatherlink.com 1.10,2013-05-21 13:43:00,
2013-05-21 09:58:00,-999.0,-99.9,29.99,NW,310,1.0,11.0,-999,0.00,,,0.00,weatherlink.com 1.10,2013-05-21 13:58:00,
2013-05-21 10:13:00,-999.0,-99.9,29.99,East,92,1.0,8.0,-999,0.00,,,0.00,weatherlink.com 1.10,2013-05-21 14:13:00,
2013-05-21 10:28:00,-999.0,-99.9,30.00,ESE,110,7.0,10.0,-999,0.00,,,0.00,weatherlink.com 1.10,2013-05-21 14:28:00,
2013-05-21 10:43:00,-999.0,-99.9,30.00,ESE,108,4.0,11.0,-999,0.00,,,0.00,weatherlink.com 1.10,2013-05-21 14:43:00,
2013-05-21 10:58:00,-999.0,-99.9,30.00,East,98,4.0,12.0,-999,0.00,,,0.00,weatherlink.com 1.10,2013-05-21 14:58:00,
2013-05-21 11:13:00,-999.0,-99.9,30.00,ESE,117,2.0,9.0,-999,0.00,,,0.00,weatherlink.com 1.10,2013-05-21 15:13:00,
2013-05-21 11:28:00,-999.0,-99.9,30.00,East,96,3.0,8.0,-999,0.00,,,0.00,weatherlink.com 1.10,2013-05-21 15:28:00,
2013-05-21 11:43:00,-999.0,-99.9,30.00,East,96,3.0,8.0,-999,0.00,,,0.00,weatherlink.com 1.10,2013-05-21 15:43:00,
2013-05-21 11:58:00,-999.0,-99.9,30.00,ESE,107,5.0,7.0,-999,0.00,,,0.00,weatherlink.com 1.10,2013-05-21 15:58:00,
2013-05-21 12:13:00,-999.0,-99.9,29.99,ESE,115,5.0,8.0,-999,0.00,,,0.00,weatherlink.com 1.10,2013-05-21 16:13:00,
2013-05-21 12:28:00,-999.0,-99.9,29.99,SE,126,3.0,8.0,-999,0.00,,,0.00,weatherlink.com 1.10,2013-05-21 16:28:00,
2013-05-21 12:43:00,-999.0,-99.9,29.99,NNE,32,7.0,12.0,-999,0.00,,,0.00,weatherlink.com 1.10,2013-05-21 16:43:00,
2013-05-21 12:58:00,-999.0,-99.9,29.99,ENE,75,9.0,11.0,-999,0.00,,,0.00,weatherlink.com 1.10,2013-05-21 16:58:00,
2013-05-21 13:14:00,-999.0,-99.9,29.98,South,176,4.0,12.0,-999,0.00,,,0.00,weatherlink.com 1.10,2013-05-21 17:14:00,
2013-05-21 13:29:00,-999.0,-99.9,29.98,SSE,165,2.0,9.0,-999,0.00,,,0.00,weatherlink.com 1.10,2013-05-21 17:29:00,
2013-05-21 13:44:00,-999.0,-99.9,29.97,ENE,70,3.0,8.0,-999,0.00,,,0.00,weatherlink.com 1.10,2013-05-21 17:44:00,
2013-05-21 13:59:00,-999.0,-99.9,29.97,ENE,60,4.0,7.0,-999,0.00,,,0.00,weatherlink.com 1.10,2013-05-21 17:59:00,
2013-05-21 14:14:00,-999.0,-99.9,29.96,ENE,77,3.0,9.0,-999,0.00,,,0.00,weatherlink.com 1.10,2013-05-21 18:14:00,
2013-05-21 14:29:00,-999.0,-99.9,29.95,ENE,58,1.0,11.0,-999,0.00,,,0.00,weatherlink.com 1.10,2013-05-21 18:29:00,
2013-05-21 14:44:00,-999.0,-99.9,29.94,East,100,2.0,11.0,-999,0.00,,,0.00,weatherlink.com 1.10,2013-05-21 18:44:00,
2013-05-21 14:59:00,-999.0,-99.9,29.94,SSW,198,5.0,7.0,-999,0.00,,,0.00,weatherlink.com 1.10,2013-05-21 18:59:00,
2013-05-21 15:14:00,-999.0,-99.9,29.94,ENE,64,2.0,9.0,-999,0.00,,,0.00,weatherlink.com 1.10,2013-05-21 19:14:00,
2013-05-21 15:29:00,-999.0,-99.9,29.93,South,190,1.0,8.0,-999,0.00,,,0.00,weatherlink.com 1.10,2013-05-21 19:29:00,
2013-05-21 15:44:00,-999.0,-99.9,29.92,NE,55,1.0,6.0,-999,0.00,,,0.00,weatherlink.com 1.10,2013-05-21 19:44:00,
2013-05-21 15:59:00,-999.0,-99.9,29.91,ENE,73,2.0,9.0,-999,0.00,,,0.00,weatherlink.com 1.10,2013-05-21 19:59:00,
2013-05-21 16:14:00,-999.0,-99.9,29.91,East,87,7.0,9.0,-999,0.00,,,0.00,weatherlink.com 1.10,2013-05-21 20:14:00,
2013-05-21 16:29:00,-999.0,-99.9,29.91,East,101,6.0,8.0,-999,0.00,,,0.00,weatherlink.com 1.10,2013-05-21 20:29:00,
2013-05-21 16:44:00,-999.0,-99.9,29.91,ENE,69,1.0,7.0,-999,0.00,,,0.00,weatherlink.com 1.10,2013-05-21 20:44:00,
2013-05-21 16:59:00,-999.0,-99.9,29.91,East,84,5.0,6.0,-999,0.00,,,0.00,weatherlink.com 1.10,2013-05-21 20:59:00,
2013-05-21 17:14:00,-999.0,-99.9,29.91,East,94,2.0,7.0,-999,0.00,,,0.00,weatherlink.com 1.10,2013-05-21 21:14:00,
2013-05-21 17:29:00,-999.0,-99.9,29.91,WSW,255,1.0,9.0,-999,0.00,,,0.00,weatherlink.com 1.10,2013-05-21 21:29:00,
2013-05-21 17:45:00,-999.0,-99.9,29.91,ESE,110,2.0,9.0,-999,0.00,,,0.00,weatherlink.com 1.10,2013-05-21 21:45:00,
2013-05-21 18:00:00,-999.0,-99.9,29.91,ESE,113,2.0,8.0,-999,0.00,,,0.00,weatherlink.com 1.10,2013-05-21 22:00:00,
2013-05-21 18:15:00,-999.0,-99.9,29.92,ESE,106,3.0,8.0,-999,0.00,,,0.00,weatherlink.com 1.10,2013-05-21 22:15:00,
2013-05-21 18:30:00,-999.0,-99.9,29.92,East,86,0.0,10.0,-999,0.00,,,0.00,weatherlink.com 1.10,2013-05-21 22:30:00,
2013-05-21 18:45:00,-999.0,-99.9,29.93,SW,219,1.0,8.0,-999,0.00,,,0.00,weatherlink.com 1.10,2013-05-21 22:45:00,
2013-05-21 19:00:00,-999.0,-99.9,29.94,East,90,3.0,8.0,-999,0.00,,,0.00,weatherlink.com 1.10,2013-05-21 23:00:00,
2013-05-21 19:15:00,-999.0,-99.9,29.94,ESE,108,3.0,9.0,-999,0.00,,,0.00,weatherlink.com 1.10,2013-05-21 23:15:00,
2013-05-21 19:31:00,-999.0,-99.9,29.94,SE,146,1.0,7.0,-999,0.00,,,0.00,weatherlink.com 1.10,2013-05-21 23:31:00,
2013-05-21 19:45:00,-999.0,-99.9,29.93,SSE,152,4.0,7.0,-999,0.00,,,0.00,weatherlink.com 1.10,2013-05-21 23:45:00,
2013-05-21 20:00:00,-999.0,-99.9,29.93,South,171,0.0,6.0,-999,0.00,,,0.00,weatherlink.com 1.10,2013-05-22 00:00:00,
2013-05-21 20:15:00,-999.0,-99.9,29.93,ESE,107,2.0,7.0,-999,0.00,,,0.00,weatherlink.com 1.10,2013-05-22 00:15:00,
2013-05-21 20:31:00,-999.0,-99.9,29.94,SSE,161,0.0,7.0,-999,0.00,,,0.00,weatherlink.com 1.10,2013-05-22 00:31:00,
2013-05-21 20:45:00,-999.0,-99.9,29.94,East,85,6.0,6.0,-999,0.00,,,0.00,weatherlink.com 1.10,2013-05-22 00:45:00,
2013-05-21 21:00:00,-999.0,-99.9,29.93,East,98,3.0,7.0,-999,0.00,,,0.00,weatherlink.com 1.10,2013-05-22 01:00:00,
2013-05-21 21:15:00,-999.0,-99.9,29.93,East,92,4.0,9.0,-999,0.00,,,0.00,weatherlink.com 1.10,2013-05-22 01:15:00,
2013-05-21 21:30:00,-999.0,-99.9,29.94,East,98,2.0,9.0,-999,0.00,,,0.00,weatherlink.com 1.10,2013-05-22 01:30:00,
2013-05-21 21:45:00,-999.0,-99.9,29.94,SE,126,1.0,9.0,-999,0.00,,,0.00,weatherlink.com 1.10,2013-05-22 01:45:00,
2013-05-21 22:00:00,-999.0,-99.9,29.95,ENE,67,1.0,8.0,-999,0.00,,,0.00,weatherlink.com 1.10,2013-05-22 02:00:00,
2013-05-21 22:15:00,-999.0,-99.9,29.95,SSE,150,2.0,11.0,-999,0.00,,,0.00,weatherlink.com 1.10,2013-05-22 02:15:00,
2013-05-21 22:30:00,-999.0,-99.9,29.95,East,96,2.0,4.0,-999,0.00,,,0.00,weatherlink.com 1.10,2013-05-22 02:30:00,
2013-05-21 22:46:00,-999.0,-99.9,29.96,ESE,113,2.0,7.0,-999,0.00,,,0.00,weatherlink.com 1.10,2013-05-22 02:46:00,
2013-05-21 23:00:00,-999.0,-99.9,29.96,East,86,0.0,5.0,-999,0.00,,,0.00,weatherlink.com 1.10,2013-05-22 03:00:00,
2013-05-21 23:16:00,-999.0,-99.9,29.95,SE,130,1.0,6.0,-999,0.00,,,0.00,weatherlink.com 1.10,2013-05-22 03:16:00,
2013-05-21 23:30:00,-999.0,-99.9,29.94,ESE,122,2.0,8.0,-999,0.00,,,0.00,weatherlink.com 1.10,2013-05-22 03:30:00,
2013-05-21 23:45:00,-999.0,-99.9,29.93,South,177,1.0,7.0,-999,0.00,,,0.00,weatherlink.com 1.10,2013-05-22 03:45:00,